History for KDPL

Kenansville, NC

Daily Weekly Monthly
Daily Summary for Monday, February 18, 2019
  Actual: Average: Record:
Temperature
Mean Temperature: 47 °F / 8 °C - :  
Max Temperature: 50 °F / 10 °C - - (-1)
Min Temperature: 42 °F / 6 °C - - (-1)
Degree Days
Heating Degree Days: 18    
Moisture
Dew Point 45 °F / 8 °C    
Average Humidity 97    
Maximum Humidity 100    
Minimum Humidity 93    
Precipitation
Precipitation 0.04 in / 1.0 cm - - ()
Sea Level Pressure
Sea Level Pressure 29.90 in / 1012.36 hPa   
Wind
Wind Speed 3 mph / 4 km/h ()  
Max Wind Speed 14 mph / 22 km/h   
Max Gust Speed 18 mph / 30 km/h   
Visibility 2.9 miles / 4.6 kilometers   
Events Fog , Rain   
Averages and records for this station are not official NWS values.
Key: T is trace of precipitation, MM is missing value
Source: Averaged Metar Reports

Graphs

Observations

History Graphs Observations

Obs Go Here...

Features

Weather Apps

WunderRadio

Weather Underground Apps
Check out our wide variety of mobile and setup applications.

Weather Underground Applications

Top of Page

© Copyright 2019
The Weather Company, LLC
Time(EST)TemperatureDew PointHumidity Sea Level Pressure Visibility Wind DirectionWind SpeedGust SpeedPrecipitationEvents Conditions
12:00 AM 44.6 °F / 7.0 °C 44.6 °F / 7.0 °C 100% 29.90 in / 1012.4 hPa 3.5 miles / 5.6 kilometers Calm Calm - N/A   Overcast
12:20 AM 44.6 °F / 7.0 °C 44.6 °F / 7.0 °C 100% 29.89 in / 1012.1 hPa 3.5 miles / 5.6 kilometers Calm Calm - N/A   Overcast
12:40 AM 44.6 °F / 7.0 °C 44.6 °F / 7.0 °C 100% 29.89 in / 1012.1 hPa 4.0 miles / 6.4 kilometers Calm Calm - N/A   Overcast
1:00 AM 46.4 °F / 8.0 °C 44.6 °F / 7.0 °C 93% 29.89 in / 1012.1 hPa 3.5 miles / 5.6 kilometers Calm Calm - N/A   Overcast
1:20 AM 46.4 °F / 8.0 °C 44.6 °F / 7.0 °C 93% 29.88 in / 1011.7 hPa 3.5 miles / 5.6 kilometers SSW 3.5 mph / 5.6 km/h - N/A   Overcast
1:40 AM 48.2 °F / 9.0 °C 48.2 °F / 9.0 °C 100% 29.88 in / 1011.7 hPa 1.8 miles / 2.8 kilometers Calm Calm - N/A   Overcast
2:00 AM 48.2 °F / 9.0 °C 48.2 °F / 9.0 °C 100% 29.87 in / 1011.4 hPa 1.0 miles / 1.6 kilometers Calm Calm - N/A   Overcast
2:15 AM 48.2 °F / 9.0 °C 48.2 °F / 9.0 °C 100% 29.87 in / 1011.4 hPa 0.5 miles / 0.8 kilometers SW 3.5 mph / 5.6 km/h - N/A Fog Fog
2:40 AM 50.0 °F / 10.0 °C 48.2 °F / 9.0 °C 94% 29.90 in / 1012.4 hPa 0.2 miles / 0.4 kilometers NW 10.4 mph / 16.7 km/h - 0.01 in / 0.3 cm Fog , Rain Rain
3:00 AM 48.2 °F / 9.0 °C 46.4 °F / 8.0 °C 93% 29.91 in / 1012.8 hPa 2.0 miles / 3.2 kilometers WNW 11.5 mph / 18.5 km/h - N/A Rain Light Rain
3:20 AM 46.4 °F / 8.0 °C 44.6 °F / 7.0 °C 93% 29.93 in / 1013.4 hPa 3.5 miles / 5.6 kilometers NW 13.8 mph / 22.2 km/h 18.4 mph / 29.6 km/h 0.01 in / 0.3 cm Rain Light Rain
3:40 AM 44.6 °F / 7.0 °C 44.6 °F / 7.0 °C 100% 29.92 in / 1013.1 hPa 3.0 miles / 4.8 kilometers NNW 8.1 mph / 13.0 km/h - 0.01 in / 0.3 cm Rain Light Rain
4:00 AM 44.6 °F / 7.0 °C 42.8 °F / 6.0 °C 93% 29.92 in / 1013.1 hPa 5.0 miles / 8.0 kilometers North 11.5 mph / 18.5 km/h - 0.01 in / 0.3 cm   Drizzle
4:20 AM 42.8 °F / 6.0 °C 42.8 °F / 6.0 °C 100% 29.93 in / 1013.4 hPa 5.0 miles / 8.0 kilometers NNW 4.6 mph / 7.4 km/h - 0.02 in / 0.5 cm Rain Heavy Rain